Sections

Log récent du chat

Temps Position Nom Message
21. oct 2021 16:01:15 253  adjuk sta
21. oct 2021 16:00:55 271  TINDER LVL10 Supreme✓ hahaha
21. oct 2021 16:00:52 303  is this..? real1ty tastatura u kurac da je bacim,
21. oct 2021 16:00:44 303  is this..? real1ty zaglavilo mi se A slovo
21. oct 2021 16:00:42 111  ꧁kakashi꧂ go b ok
21. oct 2021 15:59:16 111  ꧁kakashi꧂ kk
21. oct 2021 15:59:13 271  TINDER LVL10 Supreme✓ lol
21. oct 2021 15:57:37 271  TINDER LVL10 Supreme✓ in 2
21. oct 2021 15:57:35 271  TINDER LVL10 Supreme✓ ahhaha -67
21. oct 2021 15:57:31 431  PerkaPeek ромињо ns
21. oct 2021 15:57:16 431  PerkaPeek ромињо jebem te usta
21. oct 2021 15:57:04 311  yungkami.xo igras vrv samo preko dana
21. oct 2021 15:56:44 303  is this..? real1ty obrnuto
21. oct 2021 15:56:35 311  yungkami.xo prvi put te vidim ovde na serveru
21. oct 2021 15:56:28 303  is this..? real1ty moze sve po tvome yung
21. oct 2021 15:56:14 311  yungkami.xo nisi ti admin
21. oct 2021 15:56:08 303  is this..? real1ty dobro
21. oct 2021 15:56:05 303  is this..? real1ty da gledam sebe?
21. oct 2021 15:56:02 194  BaZukaaboYs tebe
21. oct 2021 15:55:53 303  is this..? real1ty koga da gledam
21. oct 2021 15:55:50 303  is this..? real1ty evo me
21. oct 2021 15:55:39 253  adjuk da vidi ovođ
21. oct 2021 15:55:38 303  is this..? real1ty evoga
21. oct 2021 15:55:34 253  adjuk gde je admin
21. oct 2021 15:55:19 194  BaZukaaboYs hahahahahaha
21. oct 2021 15:55:19 111  ꧁kakashi꧂ nc
21. oct 2021 15:54:54 111  ꧁kakashi꧂ wat
21. oct 2021 15:54:47 303  is this..? real1ty no
21. oct 2021 15:54:44 111  ꧁kakashi꧂ hi
21. oct 2021 15:53:46 111  ꧁kakashi꧂ gggggg
21. oct 2021 15:53:42 271  TINDER LVL10 Supreme✓ gg
21. oct 2021 15:53:27 253  adjuk gg
21. oct 2021 15:53:23 431  PerkaPeek ромињо gg
21. oct 2021 15:53:22 194  BaZukaaboYs gg
21. oct 2021 15:53:15 303  is this..? real1ty !c4timer
21. oct 2021 15:53:10 431  PerkaPeek ромињо !c4timer
21. oct 2021 15:52:33 303  is this..? real1ty !snow
21. oct 2021 15:52:30 431  PerkaPeek ромињо !snow
21. oct 2021 15:51:57 303  is this..? real1ty all B
21. oct 2021 15:51:54 431  PerkaPeek ромињо !c4timer
21. oct 2021 15:51:47 253  adjuk !servers
21. oct 2021 15:51:43 431  PerkaPeek ромињо a daj
21. oct 2021 15:50:46 111  ꧁kakashi꧂ aaa
21. oct 2021 15:46:42 311  yungkami.xo they cant see stuff you write nor hear you when you're dead
21. oct 2021 15:46:20 1.286  EGC SERVER on me bro
21. oct 2021 15:44:22 431  PerkaPeek ромињо hteo sam knife
21. oct 2021 15:44:20 303  is this..? real1ty bumbap global
21. oct 2021 15:44:15 431  PerkaPeek ромињо ahahahhahahaha
21. oct 2021 15:43:58 138  pušingMIDUUL merkis. jebo te
21. oct 2021 15:43:57 138  pušingMIDUUL merkis. gasi
21. oct 2021 15:43:56 138  pušingMIDUUL merkis. aj
21. oct 2021 15:43:41 138  pušingMIDUUL merkis. a idi u kurac
21. oct 2021 15:43:05 303  is this..? real1ty bumbap pro :hot_face"
21. oct 2021 15:42:39 431  PerkaPeek ромињо !agents
21. oct 2021 15:42:34 303  is this..? real1ty afk
21. oct 2021 15:40:59 138  pušingMIDUUL merkis. ž
21. oct 2021 15:39:54 431  PerkaPeek ромињо !switch
21. oct 2021 15:37:12 431  PerkaPeek ромињо ahahahahhah sigurno
21. oct 2021 15:37:01 138  pušingMIDUUL merkis. daj
21. oct 2021 15:36:44 431  PerkaPeek ромињо low
21. oct 2021 15:36:42 431  PerkaPeek ромињо mid
21. oct 2021 15:35:44 303  is this..? real1ty no name more like no headphones
21. oct 2021 15:35:43 431  PerkaPeek ромињо gh
21. oct 2021 15:35:42 431  PerkaPeek ромињо gj
21. oct 2021 15:34:31 303  is this..? real1ty \LOL
21. oct 2021 15:33:00 431  PerkaPeek ромињо !calladmin
21. oct 2021 15:32:50 253  adjuk omela me tvoja glavica
21. oct 2021 15:31:49 431  PerkaPeek ромињо gasi
21. oct 2021 15:31:13 303  is this..? real1ty samo hitaj shot
21. oct 2021 15:31:11 303  is this..? real1ty nije bitno
21. oct 2021 15:31:05 253  adjuk kako brate njih 6 nas 3
21. oct 2021 15:30:30 990  maksov mesar 91
21. oct 2021 15:30:24 303  is this..? real1ty i spinbot imam
21. oct 2021 15:30:17 253  adjuk reality
21. oct 2021 15:30:16 303  is this..? real1ty 100% brt
21. oct 2021 15:30:14 431  PerkaPeek ромињо kuj
21. oct 2021 15:30:11 990  maksov mesar ko
21. oct 2021 15:30:07 253  adjuk ovaj stvarno ima aimbot
21. oct 2021 15:30:01 431  PerkaPeek ромињо !st
21. oct 2021 15:29:10 303  is this..? real1ty aimbot on
21. oct 2021 15:28:56 303  is this..? real1ty !viptest
21. oct 2021 15:28:54 303  is this..? real1ty !vip
21. oct 2021 15:28:50 303  is this..? real1ty !vips
21. oct 2021 15:28:02 303  is this..? real1ty !settingws
21. oct 2021 15:28:00 303  is this..? real1ty !res
21. oct 2021 15:27:51 303  is this..? real1ty are u new to cs
21. oct 2021 15:27:48 303  is this..? real1ty rh+
21. oct 2021 15:24:32 253  adjuk ajde nek neko kika ovog merkisa lik je afk svo vreme
21. oct 2021 15:24:03 431  PerkaPeek ромињо aaa
21. oct 2021 15:23:57 990  maksov mesar pa admin
21. oct 2021 15:23:47 431  PerkaPeek ромињо kako to?
21. oct 2021 15:23:32 990  maksov mesar neki debil mapu promjenio
21. oct 2021 15:23:08 431  PerkaPeek ромињо sta je ovo bilo?
21. oct 2021 15:21:57 253  adjuk pa ukljuci ga
21. oct 2021 15:20:44 75  IronMike* NEMAM ZVUK
21. oct 2021 15:20:38 431  PerkaPeek ромињо ahahahhahahaha
21. oct 2021 15:20:35 253  adjuk gluv je
21. oct 2021 15:20:25 990  maksov mesar isus te jebo
21. oct 2021 15:20:22 990  maksov mesar kako ne cujes lika iza sebe
21. oct 2021 15:18:35 431  PerkaPeek ромињо HUHUHU
21. oct 2021 15:18:14 286  [email protected]™ | Smithex :) xD
21. oct 2021 15:18:10 16  VENOM #KMG hahahahaha smiti
21. oct 2021 15:18:06 431  PerkaPeek ромињо AHAHAHAHAH
21. oct 2021 15:18:01 431  PerkaPeek ромињо AHAHHAHAHA
21. oct 2021 15:17:55 431  PerkaPeek ромињо knifeao nas trojicu
21. oct 2021 15:17:40 253  adjuk poso pa doso
21. oct 2021 15:17:20 431  PerkaPeek ромињо jebo te odakle si dosao?
21. oct 2021 15:16:51 431  PerkaPeek ромињо bh ko idiot
21. oct 2021 15:16:51 33  e✘treme® Darkevil hahaha
21. oct 2021 15:16:48 16  VENOM #KMG mislis ?
21. oct 2021 15:16:46 33  e✘treme® Darkevil cituje ?
21. oct 2021 15:16:43 33  e✘treme® Darkevil wat ?
21. oct 2021 15:16:36 33  e✘treme® Darkevil xD
21. oct 2021 15:16:35 111  ꧁kakashi꧂ nice aim
21. oct 2021 15:16:35 431  PerkaPeek ромињо druze ovaj darkevil cituje
21. oct 2021 15:16:34 253  adjuk xd
21. oct 2021 15:16:32 194  BaZukaaboYs HAHAHAHAHHA
21. oct 2021 15:16:31 111  ꧁kakashi꧂ xd
21. oct 2021 15:16:25 431  PerkaPeek ромињо ahahahahha
21. oct 2021 15:16:17 16  VENOM #KMG admin je uzviseno bice sto voli pornice
21. oct 2021 15:16:13 193  Djomla uzas
21. oct 2021 15:16:12 193  Djomla nema ovde admina,nikad ne dolaze
21. oct 2021 15:16:05 198  BAN ova igrica ynaci ne ynam
21. oct 2021 15:16:05 33  e✘treme® Darkevil ct
21. oct 2021 15:15:57 431  PerkaPeek ромињо ko je admin?
21. oct 2021 15:15:50 320  ✪ kitkat -41.
21. oct 2021 15:14:51 431  PerkaPeek ромињо ima li admina?
21. oct 2021 15:14:35 33  e✘treme® Darkevil smithex go here again pls
21. oct 2021 15:14:08 431  PerkaPeek ромињо !info
21. oct 2021 15:13:35 33  e✘treme® Darkevil A site
21. oct 2021 15:13:22 431  PerkaPeek ромињо daj druze
21. oct 2021 15:12:56 286  [email protected]™ | Smithex :) xD
21. oct 2021 15:12:49 33  e✘treme® Darkevil VAC
21. oct 2021 15:12:49 286  [email protected]™ | Smithex :) kako da nisi
21. oct 2021 15:12:48 33  e✘treme® Darkevil xDDD
21. oct 2021 15:12:46 33  e✘treme® Darkevil ????
21. oct 2021 15:12:12 33  e✘treme® Darkevil i can drop awp for AK
21. oct 2021 15:11:37 33  e✘treme® Darkevil merkis :DDD
21. oct 2021 15:11:32 33  e✘treme® Darkevil lol
21. oct 2021 15:11:11 138  pušingMIDUUL merkis. kurac ga koljem
21. oct 2021 15:11:10 33  e✘treme® Darkevil xDDDDDDD
21. oct 2021 15:10:56 431  PerkaPeek ромињо ma zeus je najjači
21. oct 2021 15:10:49 138  pušingMIDUUL merkis. koljem ga
21. oct 2021 15:10:39 431  PerkaPeek ромињо jbt
21. oct 2021 15:09:01 111  ꧁kakashi꧂ ban sama
21. oct 2021 15:08:31 431  PerkaPeek ромињо nego sta
21. oct 2021 15:08:20 138  pušingMIDUUL merkis. karma
21. oct 2021 15:08:19 138  pušingMIDUUL merkis. AHAHAHa
21. oct 2021 15:08:14 16  VENOM #KMG mislis ijaoooo
21. oct 2021 15:08:12 138  pušingMIDUUL merkis. iojao
21. oct 2021 15:08:06 138  pušingMIDUUL merkis. ijao
21. oct 2021 15:07:31 240  fullcocaineぷ ™Maree™ banana
21. oct 2021 15:07:25 240  fullcocaineぷ ™Maree™ ct
21. oct 2021 15:07:15 431  PerkaPeek ромињо !WS
21. oct 2021 15:06:26 33  e✘treme® Darkevil rush apps
21. oct 2021 15:06:15 431  PerkaPeek ромињо !WS
21. oct 2021 15:05:20 1.984  Lil'Spooky GG
21. oct 2021 15:05:14 194  BaZukaaboYs GG
21. oct 2021 15:03:58 33  e✘treme® Darkevil GG go loose fast
21. oct 2021 15:02:52 1.083  Cheif Mwbabu !GLOVES
21. oct 2021 15:02:38 1.095  fullfоcus Sheogorath XD
21. oct 2021 15:02:36 33  e✘treme® Darkevil xD
21. oct 2021 15:02:32 1.083  Cheif Mwbabu !GLOVES
21. oct 2021 15:02:22 439  CL500 $ zeljug ajde sta stojite
21. oct 2021 15:01:54 320  ✪ kitkat y me??
21. oct 2021 15:01:39 1.083  Cheif Mwbabu !WS
21. oct 2021 15:01:31 1.083  Cheif Mwbabu !WS
21. oct 2021 15:01:30 138  pušingMIDUUL merkis. prepade me
21. oct 2021 15:01:01 1.984  Lil'Spooky uffffffffff
21. oct 2021 15:00:53 431  PerkaPeek ромињо uhuhuhuhuhuhuhu
21. oct 2021 15:00:53 1.984  Lil'Spooky gggggggggggg
21. oct 2021 15:00:45 198  BAN sta
21. oct 2021 14:59:45 431  PerkaPeek ромињо !KNIFE
21. oct 2021 14:59:24 1.984  Lil'Spooky 1v1
21. oct 2021 14:59:01 33  e✘treme® Darkevil yes but i dont care too much :-)
21. oct 2021 14:58:44 16  VENOM #KMG you made a mistake
21. oct 2021 14:58:40 1.984  Lil'Spooky same
21. oct 2021 14:58:28 33  e✘treme® Darkevil shouldnt
21. oct 2021 14:58:24 33  e✘treme® Darkevil i should peek again
21. oct 2021 14:58:15 33  e✘treme® Darkevil XD yea
21. oct 2021 14:57:54 1.083  Cheif Mwbabu !WS
21. oct 2021 14:57:11 198  BAN u dlake
21. oct 2021 14:57:09 198  BAN 65 u 3 sa diglom
21. oct 2021 14:56:16 1.083  Cheif Mwbabu !WS
21. oct 2021 14:56:14 33  e✘treme® Darkevil but blood everywhere
21. oct 2021 14:56:08 33  e✘treme® Darkevil no hit
21. oct 2021 14:54:18 298  NoZer0 HAHAHAHAHAHAH
21. oct 2021 14:52:36 67  e✘treme® Minna maaaaaa da
21. oct 2021 14:52:08 138  pušingMIDUUL merkis. MA JA
21. oct 2021 14:52:01 298  NoZer0 kennyS za sirotinju
21. oct 2021 14:51:56 16  VENOM #KMG jeste
21. oct 2021 14:51:50 33  e✘treme® Darkevil kennyS
21. oct 2021 14:51:30 432  veki ne vidi chat
21. oct 2021 14:51:28 432  veki moras preko mikrofona da mu kazes
21. oct 2021 14:51:08 138  pušingMIDUUL merkis. lower
21. oct 2021 14:51:05 138  pušingMIDUUL merkis. ct jedan
21. oct 2021 14:50:52 33  e✘treme® Darkevil AAAAA
21. oct 2021 14:50:17 138  pušingMIDUUL merkis. !w
21. oct 2021 14:50:08 138  pušingMIDUUL merkis. a koji su
21. oct 2021 14:49:46 33  e✘treme® Darkevil xD

Admin Options: